FENGYUN 1C DEB, 31056

Orbit data source: Space-Track

FENGYUN 1C DEB, 31056 is space debris in SSO originally from a launch on Mon, 10 May 1999 UTC launched from the Taiyaun Space Center, China (TSC). Fengyun 1C debris stems from the Chinese weather satellite Fengyun-1C, which was intentionally destroyed by a Chinese anti-satellite missile in 2007. This event dramatically increased the amount of space debris, with thousands of trackable fragments posing hazards to satellites and human spaceflight. The Fengyun 1C debris cloud has become a focal point in discussions about space sustainability and the need for international regulations to prevent the creation of new debris.

Loading next visibility...
Identifier
31056, 1999-025BFA
Orbit
SSO
Country
Flag of CNCN / PRC
Related business
Manufacturer
Unknown
Mission
Spacecraft
Bus & Motor
Unknown
Mass
Unknown
Launch date (UTC)
1999-05-10 (27 years ago)
Launch vehicle
Unknown
Launch site
Taiyaun Space Center, China (TSC)
Object type
Payload
Rocket body
Debris
Shape & HBR
Unknown shape, 0.1 m
Radar Cross Section
Small (<0.1 m²)

Expand to show TLE details & history
Last TLE update: 4 days ago

TLE from 4 days ago
0 FENGYUN 1C DEB
1 31056U 99025BFA 26120.42736690  .00000542  00000-0  30415-3 0  9995
2 31056  98.6844 104.0372 0024641 306.4788 209.3446 14.14511215987788
Epoch: 2026-04-30T10:15Z
TLE epoch observation values (Epoch: 2026-04-30T10:15:24.500Z)
Latitude
24.0426°
Longitude
-84.30237°
Altitude
862.403 km
Speed
7.415 km/s
True Right ascension
19h 11m 41s
True Declination
23° 55' 00"
Sunlit
Object was in daylight at epoch
Visualization orbit readout
Latitude
Unknown
Longitude
Unknown
Altitude
Unknown
Speed
Unknown
Apparent Right ascension
Unknown
Apparent Declination
Unknown
Sunlit
N/A
Visualization observer readout
Local Sidereal Time
15:04:15
Azimuth
Unknown
Elevation
Unknown
Doppler factor
Unknown
Orbital elements
Apogee altitude
858.929 km
Perigee altitude
823.351 km
Semi-major axis
7,219.277 km
Eccentricity
0.00246
Inclination
98.6844°
RAAN
104.0372°
Arg. of periapsis
306.4788°
True anomaly
209.20659°
Mean anomaly
209.3446°
Eccentric anomaly
209.27556°
Mean motion
3.53836 °/min
Orbital period
101.74 mins
BSTAR
0.00030415
Loading maneuver chart data...
Computing Atmospheric mass density...
Loading historical data...
Loading historical data...
Loading historical data...
Loading historical data...
Loading historical data...
Loading historical data...
Loading historical data...

Documentation

Showing up to 5 results
|